Regional Weather Roundup
Issued by NWS

Home | Current Version | Previous Version | Text Only | Print | Product List | Glossary On
Versions: 1 2 3 4 5 6 7 8 9 10 11 12 13 14 15 16 17 18 19 20 21 22 23 24 25 26 27 28 29 30 31 32 33 34 35 36 37 38 39 40 41 42 43 44 45 46 47 48 49 50
362
ASUS45 KCYS 111510
RWRWY

WYOMING REGIONAL WEATHER ROUNDUP
NATIONAL WEATHER SERVICE CHEYENNE WY
800 AM MST THU FEB 11 2016

NOTE:  "FAIR" INDICATES FEW OR NO CLOUDS BELOW 12,000 FEET
WITH NO SIGNIFICANT WEATHER AND/OR OBSTRUCTIONS TO VISIBILITY.

WYZ001-111600-
YELLOWSTONE NATIONAL PARK

CITY           SKY/WX    TMP DP  RH WIND       PRES   REMARKS
LK YELLOWSTONE   N/A     18  14  84 CALM      30.35R
W YELLOWSTONE  NOT AVBL

$$
WYZ002>013-054>058-071-098>099-111600-
NORTHERN WYOMING

CITY           SKY/WX    TMP DP  RH WIND       PRES   REMARKS
JACKSON        CLEAR      9   7  92 CALM      30.37R
CODY           FAIR      46  21  36 NE13      30.14R
GREYBULL       FAIR      29  25  85 SW6       30.13R WCI  23
WORLAND        FAIR      32  27  81 VRB5      30.12R WCI  27
SHERIDAN       PTCLDY    50  21  32 NW15      30.08S
BUFFALO        FAIR      45  24  43 N20G25    30.09R
GILLETTE       FAIR      44  24  45 W13       30.06R
HULETT         CLOUDY    43  28  56 W9        30.04R
NEWCASTLE      FAIR      32  27  80 CALM      30.06S

$$
WYZ014>020-022>026-101>103-111600-
CENTRAL WYOMING

CITY           SKY/WX    TMP DP  RH WIND       PRES   REMARKS
BIG PINEY      FAIR      13   9  84 E5        30.32S WCI   5
PINEDALE       FAIR      12  10  92 CALM      30.33R
DUBOIS         FAIR      36  18  48 NW29      30.19F WCI  23
LANDER         FAIR      33  16  49 NE10      30.16R WCI  25
RIVERTON       FAIR      34  18  52 CALM      30.16R
CASPER         FAIR      37  20  50 SW13G22   30.14R WCI  29
DOUGLAS        FAIR      38  24  57 NW10        N/A  WCI  31

$$
WYZ021-027>030-104>119-111600-
SOUTHERN WYOMING

CITY           SKY/WX    TMP DP  RH WIND       PRES   REMARKS
EVANSTON       FAIR      23   9  55 SW15      30.38F WCI  10
FORT BRIDGER   SUNNY     36  16  44 W24G32    30.37F WCI  24
ROCK SPRINGS   FAIR      28  15  58 SW12      30.35R WCI  18
DIXON          FAIR      13   8  78 CALM      30.39F
RAWLINS        FAIR      32  18  56 W28G37    30.22R WCI  18
SARATOGA       PTSUNNY   36  19  51 E16G24    30.29R WCI  26
LARAMIE        MOCLDY    36  17  46 SE3       30.20R
CHEYENNE       FAIR      45  16  31 W23G33    30.11F
TORRINGTON     FAIR      44  22  41 W14       30.06S
PINE BLUFFS    CLOUDY    36  25  64 S7        30.12F WCI  30

$$




USA.gov is the U.S. government's official web portal to all federal, state and local government web resources and services.